This demonstration page uses our WeatherBlox Daily Observations layout. Learn more.

Left ArrowRight Arrow

38.20091, -84.87328

Hourly Observations for March 26, 2022

Temp ( °F °C ) Dew Point ( °F °C ) Humidity (%) Winds ( mph kmh ) Pressure ( in mb ) Visibility ( mi km ) Precip ( " mm )
12:06 am 00:06 Cloudy with Heavy Rain 39 3.9 34 1.1 82 82 WNW 17 28 29.90 1012 2 3 0.07 1.78
12:10 am 00:10 Cloudy with Heavy Rain 37 2.8 34 1.1 89 89 WNW 18 30 29.90 1013 2 3 0.13 3.30
12:23 am 00:23 Cloudy with Light Rain 37 2.8 34 1.1 89 89 W 12 19 29.88 1012 3 5 0.20 5.08
12:41 am 00:41 Cloudy 39 3.9 35 1.7 86 86 W 8 13 29.87 1011 10 16 0.20 5.08
12:53 am 00:53 Cloudy 41 5 36 2.2 82 82 W 10 17 29.83 1010 10 16 0.20 5.08
1:53 am 01:53 Mostly Cloudy 41 5 32 0 70 70 W 14 22 29.83 1010 10 16 0.00 0.00
2:53 am 02:53 Clear 40 4.4 31 -0.6 70 70 WSW 10 17 29.82 1010 10 16 0.00 0.00
3:53 am 03:53 Clear 38 3.3 29 -1.7 70 70 WSW 9 15 29.79 1009 10 16 0.00 0.00
4:53 am 04:53 Mostly Clear 37 2.8 26 -3.3 65 65 WSW 10 17 29.76 1008 10 16 0.00 0.00
5:53 am 05:53 Mostly Cloudy 41 5 24 -4.4 51 51 WSW 12 19 29.75 1007 10 16 0.00 0.00
6:53 am 06:53 Cloudy 41 5 26 -3.3 55 55 WSW 9 15 29.74 1007 10 16 0.00 0.00
7:53 am 07:53 Mostly Cloudy 41 5 23 -5 49 49 W 15 24 29.76 1008 10 16 0.00 0.00
8:53 am 08:53 Mostly Cloudy 41 5 21 -6.1 45 45 W 15 24 29.78 1008 10 16 0.00 0.00
9:53 am 09:53 Partly Cloudy 42 5.6 24 -4.4 49 49 WNW 16 26 29.79 1009 10 16 0.00 0.00
10:53 am 10:53 Cloudy 40 4.4 24 -4.4 53 53 WNW 12 19 29.83 1010 10 16 0.00 0.00
11:53 am 11:53 Cloudy 39 3.9 25 -3.9 57 57 NW 14 22 29.86 1011 10 16 0.00 0.00
12:53 pm 12:53 Cloudy 40 4.4 25 -3.9 55 55 WNW 16 26 29.87 1012 10 16 0.00 0.00
1:53 pm 13:53 Mostly Cloudy 42 5.6 26 -3.3 53 53 W 13 20 29.86 1011 10 16 0.00 0.00
2:53 pm 14:53 Cloudy 43 6.1 25 -3.9 49 49 W 15 24 29.87 1011 10 16 0.00 0.00
3:53 pm 15:53 Mostly Cloudy 45 7.2 24 -4.4 44 44 NW 15 24 29.87 1012 10 16 0.00 0.00
4:53 pm 16:53 Mostly Cloudy 45 7.2 22 -5.6 40 40 WNW 15 24 29.87 1012 10 16 0.00 0.00
5:53 pm 17:53 Partly Cloudy 44 6.7 19 -7.2 37 37 WNW 13 20 29.90 1012 10 16 0.00 0.00
6:53 pm 18:53 Cloudy 43 6.1 18 -7.8 37 37 NW 17 28 29.93 1014 10 16 0.00 0.00
7:53 pm 19:53 Mostly Sunny 40 4.4 20 -6.7 45 45 NW 13 20 29.94 1014 10 16 0.00 0.00
8:53 pm 20:53 Clear 38 3.3 20 -6.7 48 48 NW 6 9 29.96 1015 10 16 0.00 0.00
9:53 pm 21:53 Clear 36 2.2 20 -6.7 52 52 WNW 7 11 29.99 1016 10 16 0.00 0.00
10:53 pm 22:53 Clear 35 1.7 20 -6.7 54 54 NW 7 11 30.01 1016 10 16 0.00 0.00
11:53 pm 23:53 Clear 31 -0.6 21 -6.1 67 67 NW 6 9 30.03 1017 10 16 0.00 0.00

Powered by AerisWeather